Showing default

SWC-1, 68540

Orbit data source: Space-Track

SWC-1, 68540 is a Saudi payload satellite in HEO that was launched on Wed, 01 Apr 2026 UTC via an SLS BLOCK 1 launch vehicle from the Air Force Eastern Test Range (AFETR). Payload-class satellites include a variety of spacecraft equipped with specific instruments for various scientific and technological missions. These include communications satellites like Starlink; space stations such as the ISS; scientific satellites like the Hubble; Earth observation satellites from companies like Planet Labs, Umbra, and HawkEye 360; GPS; miniature CubeSats for education and research; and military/defense satellites.

Loading next visibility...
Identifier
68540, 2026-069C
Orbit
HEO
Country
Flag of SASA / SAUD
Related business
Manufacturer
SAUDSA
Mission
Operational spacecraft
Bus & Motor
CUBESAT 12U, Unknown motor
Mass
~20 kg wet, ~20 kg dry
Launch date (UTC)
2026-04-01 (2 weeks ago)
Launch vehicle
SLS BLOCK 1
Launch site
Air Force Eastern Test Range (AFETR)
Object type
Payload
Rocket body
Debris
Shape & HBR
Unknown
Radar Cross Section
RCS unknown

Expand to show TLE details & history
Last TLE update: 1 week ago

TLE from 1 week ago
0 SWC-1
1 68540U 26069C   26094.03836202 -.00012113  68892-4  00000-0 0  9997
2 68540  28.3174 359.0866 8436801  78.4879  25.8197  1.02608558    30
Epoch: 2026-04-04T00:55Z
TLE epoch observation values (Epoch: 2026-04-04T00:55:14.478Z)
Latitude
-15.68293°
Longitude
4.31283°
Altitude
24,508.495 km
Speed
4.026 km/s
True Right ascension
14h 01m 56s
True Declination
-15° 39' 44"
Sunlit
Object was in daylight at epoch
Visualization orbit readout
Latitude
Unknown
Longitude
Unknown
Altitude
Unknown
Speed
Unknown
Apparent Right ascension
Unknown
Apparent Declination
Unknown
Sunlit
N/A
Visualization observer readout
Local Sidereal Time
20:21:54
Azimuth
Unknown
Elevation
Unknown
Doppler factor
Unknown
Orbital elements
Apogee altitude
70,183.778 km
Perigee altitude
113.31 km
Semi-major axis
41,526.681 km
Eccentricity
0.84368
Inclination
28.3174°
RAAN
359.0866°
Arg. of periapsis
78.4879°
True anomaly
136.1161°
Mean anomaly
25.8197°
Eccentric anomaly
71.71941°
Mean motion
0.25648 °/min
Orbital period
1,403.62 mins
BSTAR
0
Loading maneuver chart data...
Computing Atmospheric mass density...
Loading historical data...
Loading historical data...
Loading historical data...
Loading historical data...
Loading historical data...
Loading historical data...
Loading historical data...

Documentation

Showing up to 5 results
|